Tracking 25710 objects as of 5-Jul-2022
HD Live streaming from Space Station
objects crossing your sky now

FENGYUN 1C DEB

Track FENGYUN 1C DEB now!
10-day predictions


NORAD ID: 30820
Int'l Code: 1999-025AVE
Perigee: 830.6 km
Apogee: 919.7 km
Inclination: 98.7 °
Period: 102.3 minutes
Semi major axis: 7246 km
RCS: 0.0172 m2 (small)
Launch date: May 10, 1999
Source: People's Republic of China (PRC)
Launch site: Taiyaun Space Center, China (TSC)

Note: This is SATELLITE DEBRIS
aabbcc
Your satellite tracking list
Your tracking list is empty




NASA's NSSDC Master Catalog

Two Line Element Set (TLE):
1 30820U 99025AVE 22184.60065939  .00001336  00000-0  80372-3 0  9999
2 30820  98.6603 303.1219 0061471 175.0373 198.3192 14.07485287786506
Source of the keplerian elements: AFSPC